This demonstration page uses our WeatherBlox Daily Observations layout. Learn more.

Left ArrowRight Arrow

38.83388, -104.82136

Hourly Observations for April 14, 2017

Temp ( °F °C ) Dew Point ( °F °C ) Humidity (%) Winds ( mph kmh ) Pressure ( in mb ) Visibility ( mi km ) Precip ( " mm )
12:08 am 00:08 Mostly Cloudy 48 9 46 8 94 94 Calm 29.74 1007 10 16 0.00 0.00
12:33 am 00:33 Partly Cloudy 48 9 46 8 94 94 S 6 9 29.71 1006 10 16 0.00 0.00
12:58 am 00:58 Partly Cloudy with Mist and Fog 47 8.3 46 7.7 96 96 SSW 8 13 29.45 997 4 6 0.00 0.00
1:58 am 01:58 Clear 49 9.4 44 6.9 85 85 S 5 7 29.40 996 10 16 0.00 0.00
2:43 am 02:43 Mostly Cloudy with Mist and Fog 46 8 45 7 93 93 Calm 29.68 1005 2 2 0.00 0.00
2:58 am 02:58 Mostly Cloudy with Fog 46 7.7 45 7.1 96 96 S 5 7 29.39 995 3 5 0.00 0.00
3:28 am 03:28 Mostly Cloudy with Patchy Fog 45 7 45 7 100 100 NNW 5 7 29.68 1005 7 11 0.00 0.00
3:45 am 03:45 Mostly Cloudy with Light Rain 45 7 45 7 100 100 NW 7 11 29.68 1005 3 5 0.00 0.00
3:58 am 03:58 Mostly Cloudy with Light Showers 45 7 44 6.5 97 97 Calm 29.39 995 5 8 0.00 0.00
4:00 am 04:00 Partly Cloudy 45 7 43 6 93 93 Calm 29.68 1005 10 16 0.00 0.00
4:58 am 04:58 Clear 46 8 34 0.9 61 61 NW 3 6 29.39 995 10 16 0.00 0.00
5:58 am 05:58 Clear 51 10.4 24 -4.2 36 36 W 5 7 29.39 995 10 16 0.00 0.00
6:58 am 06:58 Sunny 52 11.1 29 -1.9 41 41 Calm 29.39 995 10 16 0.00 0.00
7:58 am 07:58 Sunny 56 13.5 27 -2.8 32 32 E 5 7 29.36 994 10 16 0.00 0.00
8:58 am 08:58 Sunny 58 14.3 31 -0.3 37 37 SE 6 9 29.38 995 10 16 0.00 0.00
9:58 am 09:58 Sunny 65 18.1 29 -1.5 27 27 E 8 13 29.37 995 10 16 0.00 0.00
10:17 am 10:17 Sunny 66 19 10 -12 11 11 ESE 14 22 29.38 995 10 16 0.00 0.00
10:58 am 10:58 Sunny 68 20.1 8 -13.4 9 9 S 9 15 29.34 994 10 16 0.00 0.00
11:58 am 11:58 Sunny 69 20.8 10 -12.5 10 10 SE 20 31 29.34 993 10 16 0.00 0.00
12:47 pm 12:47 Sunny 70 21 7 -14 8 8 S 24 39 29.29 992 10 16 0.00 0.00
12:58 pm 12:58 Sunny 70 21.3 7 -13.8 8 8 SE 21 33 29.30 992 10 16 0.00 0.00
12:59 pm 12:59 Sunny 70 21 5 -15 8 8 SSE 23 37 29.29 992 10 16 0.00 0.00
1:20 pm 13:20 Sunny 72 22 9 -13 8 8 S 21 33 29.29 992 10 16 0.00 0.00
1:32 pm 13:32 Sunny 72 22 7 -14 8 8 S 12 19 29.29 992 10 16 0.00 0.00
1:55 pm 13:55 Sunny 72 22 7 -14 8 8 SE 17 28 29.29 992 10 16 0.00 0.00
1:58 pm 13:58 Sunny 72 22.3 8 -13.4 8 8 SSE 18 30 29.29 992 10 16 0.00 0.00
2:44 pm 14:44 Sunny 73 23 10 -12 9 9 S 18 30 29.26 991 10 16 0.00 0.00
2:58 pm 14:58 Sunny 72 22.1 10 -12.5 9 9 SSE 7 11 29.30 992 10 16 0.00 0.00
3:33 pm 15:33 Sunny 73 23 9 -13 8 8 SSE 22 35 29.26 991 10 16 0.00 0.00
3:44 pm 15:44 Sunny 72 22 9 -13 8 8 SSE 15 24 29.29 992 10 16 0.00 0.00
3:53 pm 15:53 Sunny 72 22 9 -13 8 8 S 13 20 29.29 992 10 16 0.00 0.00
3:58 pm 15:58 Sunny 72 22 8 -13.3 8 8 S 10 17 29.28 992 10 16 0.00 0.00
4:41 pm 16:41 Mostly Sunny 72 22 5 -15 7 7 SE 13 20 29.23 990 10 16 0.00 0.00
4:58 pm 16:58 Mostly Sunny 70 21.3 5 -14.9 8 8 SSE 16 26 29.27 991 10 16 0.00 0.00
5:58 pm 17:58 Sunny 69 20.4 3 -16 7 7 S 17 28 29.26 991 10 16 0.00 0.00
6:58 pm 18:58 Sunny 68 19.9 4 -15.6 8 8 SSE 15 24 29.27 991 10 16 0.00 0.00
7:58 pm 19:58 Mostly Clear 63 17.4 7 -13.9 11 11 NNW 7 11 29.31 993 10 16 0.00 0.00
8:58 pm 20:58 Mostly Clear 65 18.1 3 -16 8 8 W 13 20 29.33 993 10 16 0.00 0.00
9:24 pm 21:24 Clear 64 18 1 -17 8 8 NNW 18 30 29.41 996 10 16 0.00 0.00
9:58 pm 21:58 Clear 62 16.8 1 -17.2 8 8 NNW 9 15 29.30 992 10 16 0.00 0.00
10:16 pm 22:16 Clear 63 17 0 -18 8 8 NNE 12 19 29.44 997 10 16 0.00 0.00
10:19 pm 22:19 Clear 63 17 1 -17 8 8 N 12 19 29.44 997 10 16 0.00 0.00
10:26 pm 22:26 Clear 63 17 1 -17 8 8 NNE 13 20 29.44 997 10 16 0.00 0.00
10:52 pm 22:52 Clear 63 17 0 -18 8 8 N 15 24 29.47 998 10 16 0.00 0.00
10:58 pm 22:58 Clear 62 16.5 -1 -18.3 8 8 W 16 26 29.33 993 10 16 0.00 0.00
11:58 pm 23:58 Clear 60 15.7 -1 -18.3 8 8 WNW 8 13 29.37 995 10 16 0.00 0.00

Powered by AerisWeather